sampling_time,wmo_synop_id,msc_id,stn_nam,stn_elev,lat,long,stn_typ,date_tm,rpt_typ,result_time,crnt_buoy_lat,crnt_buoy_lat_qa_summary,crnt_buoy_long,crnt_buoy_long_qa_summary,avg_air_temp_pst10mts,avg_air_temp_pst10mts_qa_summary,avg_sea_sfc_temp_pst10mts,avg_sea_sfc_temp_pst10mts_qa_summary,avg_batry_volt_pst10mts,avg_batry_volt_pst10mts_qa_summary,avg_solr_panl_crnt_pst10mts,avg_solr_panl_crnt_pst10mts_qa_summary,avg_wtr_lvl_snsr_volt_pst10mts,avg_wtr_lvl_snsr_volt_pst10mts_qa_summary,avg_wave_hgt_pst20mts,avg_wave_hgt_pst20mts_qa_summary,pk_wave_hgt_pst20mts,pk_wave_hgt_pst20mts_qa_summary,sig_wave_pd_pst20mts,sig_wave_pd_pst20mts_qa_summary,sig_wave_hgt_pst20mts,sig_wave_hgt_pst20mts_qa_summary,avg_max_wave_hgt_pst20mts,avg_max_wave_hgt_pst20mts_qa_summary,avg_max_wave_pd_pst20mts,avg_max_wave_pd_pst20mts_qa_summary,avg_wave_pd_pst20mts,avg_wave_pd_pst20mts_qa_summary,pk_wave_pd_pst20mts,pk_wave_pd_pst20mts_qa_summary,avg_stn_pres_pst10mts,avg_stn_pres_pst10mts_qa_summary,avg_wnd_spd_pst10mts,avg_wnd_spd_pst10mts_qa_summary,avg_wnd_dir_pst10mts,avg_wnd_dir_pst10mts_qa_summary,max_avg_wnd_spd_pst10mts,max_avg_wnd_spd_pst10mts_qa_summary,wnd_snsr_vert_disp_1,wnd_snsr_vert_disp_1_qa_summary,pres_tend_char_pst3hrs,pres_tend_char_pst3hrs_data_flag,pres_tend_amt_pst3hrs,pres_tend_amt_pst3hrs_data_flag,avg_mslp_pst10mts,avg_mslp_pst10mts_data_flag,avg_stn_pres_pst10mts_1,avg_stn_pres_pst10mts_1_qa_summary,avg_stn_pres_pst10mts_2,avg_stn_pres_pst10mts_2_qa_summary,avg_wnd_spd_pst10mts_1,avg_wnd_spd_pst10mts_1_qa_summary,avg_wnd_spd_pst10mts_2,avg_wnd_spd_pst10mts_2_qa_summary,avg_wnd_dir_pst10mts_1,avg_wnd_dir_pst10mts_1_qa_summary,avg_wnd_dir_pst10mts_2,avg_wnd_dir_pst10mts_2_qa_summary,max_avg_wnd_spd_pst10mts_1,max_avg_wnd_spd_pst10mts_1_qa_summary,max_avg_wnd_spd_pst10mts_2,max_avg_wnd_spd_pst10mts_2_qa_summary
2020-12-03T00:00:00Z,44489,9302001,WEST CHEDABUCTO BAY,0.0,45.48687,-61.14100000000001,18,2020-12-03T00:00:00.000Z,108,2020-12-03T00:03:34.552Z,45.487429999999996,100,-61.14128,100,9.0,100,8.0,100,12.4,100,0.0,100,3.6,100,0.5,100,1.3,100,8.3,100,0.8,100,1.0,100,8.3,100,6.5,100,9.5,100,1011.1,100,14.0,100,163,100,16.9,100,5.0,100,6,1,-1.4,1,1011.1,1,1011.1,100,1011.1,100,14.0,100,13.7,100,163,100,168,100,16.9,100,16.6,100
2020-12-03T00:10:00Z,44489,9302001,WEST CHEDABUCTO BAY,0.0,45.48687,-61.14100000000001,18,2020-12-03T00:10:00.000Z,110,2020-12-03T00:13:06.969Z,,-1,,-1,9.8,100,8.7,100,12.4,100,0.0,100,3.6,100,,-1,,-1,,-1,,-1,,-1,,-1,,-1,,-1,1011.7,100,13.3,100,188,100,15.1,100,5.0,100,5,1,-0.5,1,1011.7,1,1011.7,100,1011.7,100,13.3,100,13.3,100,188,100,193,100,15.1,100,14.8,100
2020-12-03T00:20:00Z,44489,9302001,WEST CHEDABUCTO BAY,0.0,45.48687,-61.14100000000001,18,2020-12-03T00:20:00.000Z,110,2020-12-03T00:23:05.632Z,45.487429999999996,100,-61.14127,100,9.2,100,8.0,100,12.4,100,0.0,100,3.6,100,,-1,,-1,,-1,,-1,,-1,,-1,,-1,,-1,1011.6,100,11.9,100,172,100,14.0,100,5.0,100,5,1,-0.6,1,1011.6,1,1011.6,100,1011.6,100,11.9,100,11.5,100,172,100,177,100,14.0,100,13.7,100
2020-12-03T00:30:00Z,44489,9302001,WEST CHEDABUCTO BAY,0.0,45.48687,-61.14100000000001,18,2020-12-03T00:30:00.000Z,110,2020-12-03T00:33:11.402Z,45.48743,100,-61.14125,100,9.4,100,8.0,100,12.4,100,0.0,100,3.6,100,,-1,,-1,,-1,,-1,,-1,,-1,,-1,,-1,1011.8,100,13.7,100,181,100,17.6,100,5.0,100,5,1,-0.5,1,1011.8,1,1011.8,100,1011.8,100,13.7,100,13.3,100,181,100,186,100,17.6,100,16.9,100
2020-12-03T00:40:00Z,44489,9302001,WEST CHEDABUCTO BAY,0.0,45.48687,-61.14100000000001,18,2020-12-03T00:40:00.000Z,110,2020-12-03T00:43:21.093Z,45.48742,100,-61.14127,100,9.3,100,8.0,100,12.4,100,0.0,100,3.6,100,,-1,,-1,,-1,,-1,,-1,,-1,,-1,,-1,1012.0,100,10.8,100,210,100,13.7,100,5.0,100,5,1,-0.1,1,1012.0,1,1012.0,100,1012.0,100,10.8,100,10.8,100,210,100,215,100,13.7,100,13.3,100
2020-12-03T00:50:00Z,44489,9302001,WEST CHEDABUCTO BAY,0.0,45.48687,-61.14100000000001,18,2020-12-03T00:50:00.000Z,110,2020-12-03T00:53:22.966Z,45.48743,100,-61.14127,100,9.5,100,8.0,100,12.4,100,0.0,100,3.6,100,,-1,,-1,,-1,,-1,,-1,,-1,,-1,,-1,1011.9,100,7.9,100,210,100,10.4,100,5.0,100,3,1,0.2,1,1011.9,1,1011.9,100,1011.9,100,7.9,100,7.9,100,210,100,216,100,10.4,100,10.1,100
2020-12-03T01:00:00Z,44489,9302001,WEST CHEDABUCTO BAY,0.0,45.48687,-61.14100000000001,18,2020-12-03T01:00:00.000Z,108,2020-12-03T01:03:25.335Z,45.48745,100,-61.14125,100,9.8,100,8.0,100,12.4,100,0.0,100,3.6,100,0.5,100,1.4,100,7.6,100,0.8,100,1.0,100,8.0,100,5.8,100,10.0,100,1012.0,100,15.1,100,170,100,24.5,100,5.0,100,3,1,0.4,1,1012.0,1,1012.0,100,1012.0,100,15.1,100,14.8,100,170,100,175,100,24.5,100,24.1,100
2020-12-03T01:10:00Z,44489,9302001,WEST CHEDABUCTO BAY,0.0,45.48687,-61.14100000000001,18,2020-12-03T01:10:00.000Z,110,2020-12-03T01:16:54.624Z,45.48743,100,-61.14123000000001,100,10.1,100,8.0,100,12.4,100,0.0,100,3.6,100,,-1,,-1,,-1,,-1,,-1,,-1,,-1,,-1,1012.2,100,18.0,100,172,100,23.0,100,5.0,100,3,1,0.6,1,1012.2,1,1012.2,100,1012.2,100,18.0,100,17.6,100,172,100,177,100,23.0,100,23.0,100
2020-12-03T01:20:00Z,44489,9302001,WEST CHEDABUCTO BAY,0.0,45.48687,-61.14100000000001,18,2020-12-03T01:20:00.000Z,110,2020-12-03T01:23:28.750Z,45.48742,100,-61.14127,100,9.8,100,8.0,100,12.4,100,0.0,100,3.6,100,,-1,,-1,,-1,,-1,,-1,,-1,,-1,,-1,1012.2,100,15.1,100,175,100,19.1,100,5.0,100,3,1,0.8,1,1012.2,1,1012.2,100,1012.2,100,15.1,100,15.1,100,175,100,180,100,19.1,100,18.7,100
2020-12-03T01:30:00Z,44489,9302001,WEST CHEDABUCTO BAY,0.0,45.48687,-61.14100000000001,18,2020-12-03T01:30:00.000Z,110,2020-12-03T01:33:32.942Z,45.48743,100,-61.14127,100,9.5,100,8.0,100,12.4,100,0.0,100,3.6,100,,-1,,-1,,-1,,-1,,-1,,-1,,-1,,-1,1012.4,100,18.4,100,171,100,22.3,100,5.0,100,3,1,1.2,1,1012.4,1,1012.4,100,1012.4,100,18.4,100,18.0,100,171,100,176,100,22.3,100,21.6,100
2020-12-03T01:40:00Z,44489,9302001,WEST CHEDABUCTO BAY,0.0,45.48687,-61.14100000000001,18,2020-12-03T01:40:00.000Z,110,2020-12-03T01:43:27.635Z,45.48742,100,-61.14127,100,9.6,100,8.0,100,12.4,100,0.0,100,3.6,100,,-1,,-1,,-1,,-1,,-1,,-1,,-1,,-1,1012.4,100,18.4,100,163,100,22.7,100,5.0,100,3,1,1.0,1,1012.4,1,1012.4,100,1012.4,100,18.4,100,17.6,100,163,100,168,100,22.7,100,22.7,100
2020-12-03T01:50:00Z,44489,9302001,WEST CHEDABUCTO BAY,0.0,45.48687,-61.14100000000001,18,2020-12-03T01:50:00.000Z,110,2020-12-03T01:53:35.752Z,45.48745,100,-61.14125,100,9.5,100,8.0,100,12.4,100,0.0,100,3.6,100,,-1,,-1,,-1,,-1,,-1,,-1,,-1,,-1,1012.1,100,19.1,100,165,100,23.0,100,5.0,100,3,1,0.7,1,1012.1,1,1012.1,100,1012.1,100,19.1,100,18.4,100,165,100,170,100,23.0,100,22.0,100
2020-12-03T02:00:00Z,44489,9302001,WEST CHEDABUCTO BAY,0.0,45.48687,-61.14100000000001,18,2020-12-03T02:00:00.000Z,108,2020-12-03T02:03:38.402Z,45.48745,100,-61.14125,100,9.5,100,8.0,100,12.4,100,0.0,100,3.6,100,0.5,100,1.4,100,7.5,100,0.9,100,1.1,100,7.6,100,5.0,100,9.1,100,1012.1,100,22.0,100,169,100,25.6,100,5.0,100,3,1,0.8,1,1012.1,1,1012.1,100,1012.1,100,22.0,100,21.2,100,169,100,174,100,25.6,100,24.8,100
2020-12-03T02:10:00Z,44489,9302001,WEST CHEDABUCTO BAY,0.0,45.48687,-61.14100000000001,18,2020-12-03T02:10:00.000Z,110,2020-12-03T02:15:32.965Z,45.48743,100,-61.14122,100,9.4,100,8.0,100,12.4,100,0.0,100,3.6,100,,-1,,-1,,-1,,-1,,-1,,-1,,-1,,-1,1012.2,100,20.5,100,178,100,23.0,100,5.0,100,1,1,0.9,1,1012.2,1,1012.2,100,1012.2,100,20.5,100,19.8,100,178,100,183,100,23.0,100,22.3,100
2020-12-03T02:20:00Z,44489,9302001,WEST CHEDABUCTO BAY,0.0,45.48687,-61.14100000000001,18,2020-12-03T02:20:00.000Z,110,2020-12-03T02:22:35.439Z,45.48745,100,-61.14118000000001,100,9.6,100,8.0,100,12.4,100,0.0,100,3.6,100,,-1,,-1,,-1,,-1,,-1,,-1,,-1,,-1,1012.4,100,22.3,100,197,100,25.9,100,5.0,100,3,1,1.0,1,1012.4,1,1012.4,100,1012.5,100,22.3,100,22.0,100,197,100,202,100,25.9,100,25.9,100
2020-12-03T02:30:00Z,44489,9302001,WEST CHEDABUCTO BAY,0.0,45.48687,-61.14100000000001,18,2020-12-03T02:30:00.000Z,110,2020-12-03T02:32:49.476Z,45.48745,100,-61.14122,100,9.6,100,8.0,100,12.4,100,0.0,100,3.6,100,,-1,,-1,,-1,,-1,,-1,,-1,,-1,,-1,1012.6,100,21.2,100,207,100,25.2,100,5.0,100,1,1,1.5,1,1012.6,1,1012.6,100,1012.6,100,21.2,100,20.5,100,207,100,212,100,25.2,100,24.8,100
2020-12-03T02:40:00Z,44489,9302001,WEST CHEDABUCTO BAY,0.0,45.48687,-61.14100000000001,18,2020-12-03T02:40:00.000Z,110,2020-12-03T02:42:57.102Z,45.48745,100,-61.14122,100,9.4,100,8.0,100,12.4,100,0.0,100,3.6,100,,-1,,-1,,-1,,-1,,-1,,-1,,-1,,-1,1012.5,100,17.6,100,204,100,19.8,100,5.0,100,1,1,1.7,1,1012.5,1,1012.5,100,1012.5,100,17.6,100,17.3,100,204,100,209,100,19.8,100,19.4,100
2020-12-03T02:50:00Z,44489,9302001,WEST CHEDABUCTO BAY,0.0,45.48687,-61.14100000000001,18,2020-12-03T02:50:00.000Z,110,2020-12-03T02:53:01.634Z,45.48747,100,-61.14122,100,9.3,100,8.0,100,12.4,100,0.0,100,3.6,100,,-1,,-1,,-1,,-1,,-1,,-1,,-1,,-1,1012.6,100,17.6,100,197,100,20.2,100,5.0,100,1,1,1.7,1,1012.6,1,1012.6,100,1012.6,100,17.6,100,17.3,100,197,100,202,100,20.2,100,19.8,100
2020-12-03T03:00:00Z,44489,9302001,WEST CHEDABUCTO BAY,0.0,45.48687,-61.14100000000001,18,2020-12-03T03:00:00.000Z,108,2020-12-03T03:04:01.605Z,45.48745,100,-61.1412,100,9.2,100,8.0,100,12.4,100,0.0,100,3.6,100,0.5,100,1.5,100,7.8,100,0.8,100,1.0,100,8.6,100,5.6,100,9.1,100,1012.5,100,14.0,100,188,100,19.4,100,5.0,100,1,1,1.4,1,1012.5,1,1012.5,100,1012.5,100,14.0,100,13.7,100,188,100,192,100,19.4,100,18.4,100
2020-12-03T03:10:00Z,44489,9302001,WEST CHEDABUCTO BAY,0.0,45.48687,-61.14100000000001,18,2020-12-03T03:10:00.000Z,110,2020-12-03T03:15:58.483Z,45.4874,100,-61.14115,100,9.1,100,8.0,100,12.4,100,0.0,100,3.6,100,,-1,,-1,,-1,,-1,,-1,,-1,,-1,,-1,1012.4,100,12.2,100,192,100,13.3,100,5.0,100,1,1,0.7,1,1012.4,1,1012.4,100,1012.4,100,12.2,100,11.9,100,192,100,196,100,13.3,100,13.0,100
2020-12-03T03:20:00Z,44489,9302001,WEST CHEDABUCTO BAY,0.0,45.48687,-61.14100000000001,18,2020-12-03T03:20:00.000Z,110,2020-12-03T03:23:06.707Z,45.48742,100,-61.1412,100,9.1,100,8.0,100,12.4,100,0.0,100,3.6,100,,-1,,-1,,-1,,-1,,-1,,-1,,-1,,-1,1012.4,100,11.5,100,192,100,13.0,100,5.0,100,1,1,0.8,1,1012.4,1,1012.4,100,1012.4,100,11.5,100,10.8,100,192,100,197,100,13.0,100,12.6,100
2020-12-03T03:30:00Z,44489,9302001,WEST CHEDABUCTO BAY,0.0,45.48687,-61.14100000000001,18,2020-12-03T03:30:00.000Z,110,2020-12-03T03:33:07.106Z,45.4874,100,-61.14118000000001,100,9.1,100,8.0,100,12.4,100,0.0,100,3.6,100,,-1,,-1,,-1,,-1,,-1,,-1,,-1,,-1,1012.5,100,10.8,100,193,100,13.0,100,5.0,100,0,1,0.7,1,1012.5,1,1012.5,100,1012.5,100,10.8,100,10.4,100,193,100,198,100,13.0,100,12.2,100
2020-12-03T03:40:00Z,44489,9302001,WEST CHEDABUCTO BAY,0.0,45.48687,-61.14100000000001,18,2020-12-03T03:40:00.000Z,110,2020-12-03T03:43:06.112Z,45.48747,100,-61.14122,100,9.4,100,8.0,100,12.4,100,0.0,100,3.6,100,,-1,,-1,,-1,,-1,,-1,,-1,,-1,,-1,1012.6,100,13.7,100,199,100,18.0,100,5.0,100,1,1,0.6,1,1012.6,1,1012.6,100,1012.6,100,13.7,100,13.3,100,199,100,204,100,18.0,100,17.6,100
2020-12-03T03:50:00Z,44489,9302001,WEST CHEDABUCTO BAY,0.0,45.48687,-61.14100000000001,18,2020-12-03T03:50:00.000Z,110,2020-12-03T03:53:10.977Z,45.48745,100,-61.14122,100,9.5,100,8.0,100,12.4,100,0.0,100,3.6,100,,-1,,-1,,-1,,-1,,-1,,-1,,-1,,-1,1012.6,100,13.3,100,191,100,15.8,100,5.0,100,1,1,0.7,1,1012.6,1,1012.6,100,1012.6,100,13.3,100,13.0,100,191,100,196,100,15.8,100,15.1,100
2020-12-03T04:00:00Z,44489,9302001,WEST CHEDABUCTO BAY,0.0,45.48687,-61.14100000000001,18,2020-12-03T04:00:00.000Z,108,2020-12-03T04:03:21.371Z,45.487429999999996,100,-61.14122,100,9.4,100,8.0,100,12.4,100,0.0,100,3.6,100,0.6,100,1.5,100,8.7,100,0.9,100,1.1,100,8.6,100,6.2,100,9.1,100,1012.5,100,12.6,100,184,100,14.4,100,5.0,100,2,1,0.5,1,1012.5,1,1012.5,100,1012.6,100,12.6,100,12.2,100,184,100,189,100,14.4,100,14.0,100
2020-12-03T04:10:00Z,44489,9302001,WEST CHEDABUCTO BAY,0.0,45.48687,-61.14100000000001,18,2020-12-03T04:10:00.000Z,110,2020-12-03T04:16:22.838Z,45.48743,100,-61.14122,100,9.3,100,8.0,100,12.4,100,0.0,100,3.6,100,,-1,,-1,,-1,,-1,,-1,,-1,,-1,,-1,1012.5,100,13.0,100,187,100,14.4,100,5.0,100,3,1,0.3,1,1012.5,1,1012.5,100,1012.5,100,13.0,100,12.2,100,187,100,192,100,14.4,100,14.0,100
2020-12-03T04:20:00Z,44489,9302001,WEST CHEDABUCTO BAY,0.0,45.48687,-61.14100000000001,18,2020-12-03T04:20:00.000Z,110,2020-12-03T04:23:19.708Z,45.4874,100,-61.14122,100,9.1,100,8.0,100,12.4,100,0.0,100,3.6,100,,-1,,-1,,-1,,-1,,-1,,-1,,-1,,-1,1012.5,100,13.7,100,181,100,15.1,100,5.0,100,1,1,0.3,1,1012.5,1,1012.5,100,1012.5,100,13.7,100,13.0,100,181,100,186,100,15.1,100,14.8,100
2020-12-03T04:30:00Z,44489,9302001,WEST CHEDABUCTO BAY,0.0,45.48687,-61.14100000000001,18,2020-12-03T04:30:00.000Z,110,2020-12-03T04:33:28.605Z,45.48743,100,-61.14122,100,9.1,100,8.0,100,12.4,100,0.0,100,3.6,100,,-1,,-1,,-1,,-1,,-1,,-1,,-1,,-1,1012.5,100,13.7,100,178,100,15.5,100,5.0,100,1,1,0.1,1,1012.5,1,1012.5,100,1012.5,100,13.7,100,13.3,100,178,100,183,100,15.5,100,15.1,100
2020-12-03T04:40:00Z,44489,9302001,WEST CHEDABUCTO BAY,0.0,45.48687,-61.14100000000001,18,2020-12-03T04:40:00.000Z,110,2020-12-03T04:43:23.758Z,45.487429999999996,100,-61.1412,100,9.1,100,8.0,100,12.4,100,0.0,100,3.6,100,,-1,,-1,,-1,,-1,,-1,,-1,,-1,,-1,1012.5,100,15.1,100,178,100,16.6,100,5.0,100,0,1,0.1,1,1012.5,1,1012.5,100,1012.5,100,15.1,100,14.4,100,178,100,183,100,16.6,100,16.2,100
2020-12-03T04:50:00Z,44489,9302001,WEST CHEDABUCTO BAY,0.0,45.48687,-61.14100000000001,18,2020-12-03T04:50:00.000Z,110,2020-12-03T04:53:28.171Z,45.48742,100,-61.1412,100,9.1,100,8.0,100,12.4,100,0.0,100,3.6,100,,-1,,-1,,-1,,-1,,-1,,-1,,-1,,-1,1012.4,100,13.7,100,173,100,15.8,100,5.0,100,0,1,0.3,1,1012.4,1,1012.4,100,1012.4,100,13.7,100,13.0,100,173,100,178,100,15.8,100,15.5,100
2020-12-03T05:00:00Z,44489,9302001,WEST CHEDABUCTO BAY,0.0,45.48687,-61.14100000000001,18,2020-12-03T05:00:00.000Z,108,2020-12-03T05:03:26.119Z,45.48742,100,-61.14122,100,8.7,100,8.0,100,12.4,100,0.0,100,3.6,100,0.5,100,1.4,100,8.0,100,0.8,100,1.0,100,7.9,100,6.0,100,7.7,100,1012.3,100,12.6,100,169,100,13.7,100,5.0,100,0,1,0.3,1,1012.3,1,1012.3,100,1012.3,100,12.6,100,11.5,100,169,100,173,100,13.7,100,13.3,100
2020-12-03T05:10:00Z,44489,9302001,WEST CHEDABUCTO BAY,0.0,45.48687,-61.14100000000001,18,2020-12-03T05:10:00.000Z,110,2020-12-03T05:16:24.031Z,45.48743,100,-61.1412,100,8.5,100,8.0,100,12.4,100,0.0,100,3.6,100,,-1,,-1,,-1,,-1,,-1,,-1,,-1,,-1,1012.2,100,12.2,100,176,100,15.1,100,5.0,100,8,1,-0.1,1,1012.2,1,1012.2,100,1012.2,100,12.2,100,11.5,100,176,100,181,100,15.1,100,14.0,100
2020-12-03T05:20:00Z,44489,9302001,WEST CHEDABUCTO BAY,0.0,45.48687,-61.14100000000001,18,2020-12-03T05:20:00.000Z,110,2020-12-03T05:23:32.482Z,45.48742,100,-61.14118000000001,100,8.6,100,7.9,100,12.4,100,0.0,100,3.6,100,,-1,,-1,,-1,,-1,,-1,,-1,,-1,,-1,1012.2,100,15.5,100,184,100,17.6,100,5.0,100,8,1,-0.3,1,1012.2,1,1012.2,100,1012.2,100,15.5,100,15.1,100,184,100,188,100,17.6,100,16.9,100
2020-12-03T05:30:00Z,44489,9302001,WEST CHEDABUCTO BAY,0.0,45.48687,-61.14100000000001,18,2020-12-03T05:30:00.000Z,110,2020-12-03T05:33:43.918Z,45.48742,100,-61.14118000000001,100,8.5,100,7.9,100,12.4,100,0.0,100,3.6,100,,-1,,-1,,-1,,-1,,-1,,-1,,-1,,-1,1012.3,100,14.4,100,181,100,16.9,100,5.0,100,8,1,-0.3,1,1012.3,1,1012.3,100,1012.3,100,14.4,100,13.3,100,181,100,186,100,16.9,100,16.2,100
2020-12-03T05:40:00Z,44489,9302001,WEST CHEDABUCTO BAY,0.0,45.48687,-61.14100000000001,18,2020-12-03T05:40:00.000Z,110,2020-12-03T05:43:48.907Z,45.48742,100,-61.14118000000001,100,8.4,100,7.9,100,12.4,100,0.0,100,3.6,100,,-1,,-1,,-1,,-1,,-1,,-1,,-1,,-1,1012.5,100,16.2,100,182,100,19.8,100,5.0,100,0,1,0.0,1,1012.5,1,1012.5,100,1012.5,100,16.2,100,15.1,100,182,100,187,100,19.8,100,19.1,100
2020-12-03T05:50:00Z,44489,9302001,WEST CHEDABUCTO BAY,0.0,45.48687,-61.14100000000001,18,2020-12-03T05:50:00.000Z,110,2020-12-03T05:52:46.529Z,45.4874,100,-61.14118000000001,100,8.3,100,7.9,100,12.4,100,0.0,100,3.6,100,,-1,,-1,,-1,,-1,,-1,,-1,,-1,,-1,1012.6,100,15.5,100,182,100,18.4,100,5.0,100,5,1,0.0,1,1012.6,1,1012.6,100,1012.6,100,15.5,100,14.0,100,182,100,187,100,18.4,100,16.9,100
2020-12-03T06:00:00Z,44489,9302001,WEST CHEDABUCTO BAY,0.0,45.48687,-61.14100000000001,18,2020-12-03T06:00:00.000Z,108,2020-12-03T06:03:00.080Z,45.4874,100,-61.14122,100,8.1,100,7.9,100,12.3,100,0.0,100,3.6,100,0.5,100,1.3,100,8.4,100,0.9,100,1.1,100,8.5,100,6.5,100,10.0,100,1012.7,100,15.8,100,176,100,20.5,100,5.0,100,3,1,0.2,1,1012.7,1,1012.7,100,1012.7,100,15.8,100,14.8,100,176,100,181,100,20.5,100,19.8,100
2020-12-03T06:10:00Z,44489,9302001,WEST CHEDABUCTO BAY,0.0,45.48687,-61.14100000000001,18,2020-12-03T06:10:00.000Z,110,2020-12-03T06:16:04.656Z,45.48743,100,-61.14118000000001,100,7.9,100,7.9,100,12.4,100,0.0,100,3.6,100,,-1,,-1,,-1,,-1,,-1,,-1,,-1,,-1,1012.7,100,17.3,100,185,100,20.5,100,5.0,100,3,1,0.3,1,1012.7,1,1012.7,100,1012.7,100,17.3,100,16.6,100,185,100,190,100,20.5,100,19.8,100
2020-12-03T06:20:00Z,44489,9302001,WEST CHEDABUCTO BAY,0.0,45.48687,-61.14100000000001,18,2020-12-03T06:20:00.000Z,110,2020-12-03T06:22:50.286Z,45.48745,100,-61.14122,100,7.6,100,7.9,100,12.4,100,0.0,100,3.6,100,,-1,,-1,,-1,,-1,,-1,,-1,,-1,,-1,1012.8,100,15.8,100,189,100,20.5,100,5.0,100,3,1,0.4,1,1012.8,1,1012.8,100,1012.8,100,15.8,100,15.5,100,189,100,194,100,20.5,100,19.8,100
2020-12-03T06:30:00Z,44489,9302001,WEST CHEDABUCTO BAY,0.0,45.48687,-61.14100000000001,18,2020-12-03T06:30:00.000Z,110,2020-12-03T06:32:56.391Z,45.48743,100,-61.14117,100,7.6,100,7.9,100,12.4,100,0.0,100,3.6,100,,-1,,-1,,-1,,-1,,-1,,-1,,-1,,-1,1012.8,100,15.1,100,191,100,19.4,100,5.0,100,3,1,0.4,1,1012.8,1,1012.8,100,1012.9,100,15.1,100,14.8,100,191,100,196,100,19.4,100,19.1,100
2020-12-03T06:40:00Z,44489,9302001,WEST CHEDABUCTO BAY,0.0,45.48687,-61.14100000000001,18,2020-12-03T06:40:00.000Z,110,2020-12-03T06:42:47.916Z,45.48745,100,-61.14123000000001,100,7.4,100,7.9,100,12.3,100,0.0,100,3.6,100,,-1,,-1,,-1,,-1,,-1,,-1,,-1,,-1,1012.6,100,17.3,100,183,100,20.2,100,5.0,100,5,1,0.0,1,1012.6,1,1012.6,100,1012.6,100,17.3,100,16.9,100,183,100,188,100,20.2,100,20.2,100
2020-12-03T06:50:00Z,44489,9302001,WEST CHEDABUCTO BAY,0.0,45.48687,-61.14100000000001,18,2020-12-03T06:50:00.000Z,110,2020-12-03T06:52:56.045Z,45.48743,100,-61.14118000000001,100,7.2,100,7.9,100,12.3,100,0.0,100,3.6,100,,-1,,-1,,-1,,-1,,-1,,-1,,-1,,-1,1012.5,100,19.4,100,183,100,22.3,100,5.0,100,6,1,-0.1,1,1012.5,1,1012.5,100,1012.5,100,19.4,100,19.1,100,183,100,188,100,22.3,100,22.0,100
2020-12-03T07:00:00Z,44489,9302001,WEST CHEDABUCTO BAY,0.0,45.48687,-61.14100000000001,18,2020-12-03T07:00:00.000Z,108,2020-12-03T07:03:03.691Z,45.487429999999996,100,-61.14115,100,7.1,100,7.9,100,12.3,100,0.0,100,3.6,100,0.5,100,1.2,100,7.9,100,0.8,100,1.0,100,8.6,100,5.7,100,10.0,100,1012.8,100,16.6,100,200,100,21.6,100,5.0,100,3,1,0.2,1,1012.8,1,1012.8,100,1012.8,100,16.6,100,16.2,100,200,100,205,100,21.6,100,21.2,100
2020-12-03T07:10:00Z,44489,9302001,WEST CHEDABUCTO BAY,0.0,45.48687,-61.14100000000001,18,2020-12-03T07:10:00.000Z,110,2020-12-03T07:16:10.726Z,45.48742,100,-61.14117,100,7.1,100,7.9,100,12.4,100,0.0,100,3.6,100,,-1,,-1,,-1,,-1,,-1,,-1,,-1,,-1,1012.7,100,11.5,100,211,100,14.8,100,5.0,100,3,1,0.2,1,1012.7,1,1012.7,100,1012.7,100,11.5,100,11.5,100,211,100,216,100,14.8,100,14.0,100
2020-12-03T07:20:00Z,44489,9302001,WEST CHEDABUCTO BAY,0.0,45.48687,-61.14100000000001,18,2020-12-03T07:20:00.000Z,110,2020-12-03T07:23:05.292Z,45.48742,100,-61.141130000000004,100,7.1,100,7.9,100,12.4,100,0.0,100,3.6,100,,-1,,-1,,-1,,-1,,-1,,-1,,-1,,-1,1012.7,100,13.3,100,197,100,16.6,100,5.0,100,3,1,0.1,1,1012.7,1,1012.7,100,1012.7,100,13.3,100,13.0,100,197,100,202,100,16.6,100,16.2,100
2020-12-03T07:30:00Z,44489,9302001,WEST CHEDABUCTO BAY,0.0,45.48687,-61.14100000000001,18,2020-12-03T07:30:00.000Z,110,2020-12-03T07:33:18.829Z,45.48743,100,-61.1412,100,7.2,100,7.9,100,12.4,100,0.0,100,3.6,100,,-1,,-1,,-1,,-1,,-1,,-1,,-1,,-1,1012.6,100,14.4,100,209,100,18.0,100,5.0,100,0,1,0.1,1,1012.6,1,1012.6,100,1012.7,100,14.4,100,14.0,100,209,100,214,100,18.0,100,18.4,100
2020-12-03T07:40:00Z,44489,9302001,WEST CHEDABUCTO BAY,0.0,45.48687,-61.14100000000001,18,2020-12-03T07:40:00.000Z,110,2020-12-03T07:43:21.440Z,45.487429999999996,100,-61.141169999999995,100,7.1,100,7.9,100,12.3,100,0.0,100,3.6,100,,-1,,-1,,-1,,-1,,-1,,-1,,-1,,-1,1012.6,100,10.8,100,208,100,14.0,100,5.0,100,1,1,0.1,1,1012.6,1,1012.6,100,1012.6,100,10.8,100,10.8,100,208,100,213,100,14.0,100,13.7,100
2020-12-03T07:50:00Z,44489,9302001,WEST CHEDABUCTO BAY,0.0,45.48687,-61.14100000000001,18,2020-12-03T07:50:00.000Z,110,2020-12-03T07:53:19.755Z,45.48745,100,-61.14123000000001,100,7.1,100,7.9,100,12.3,100,0.0,100,3.6,100,,-1,,-1,,-1,,-1,,-1,,-1,,-1,,-1,1012.5,100,9.0,100,189,100,11.9,100,5.0,100,1,1,0.1,1,1012.5,1,1012.5,100,1012.5,100,9.0,100,8.6,100,189,100,194,100,11.9,100,11.9,100
2020-12-03T08:00:00Z,44489,9302001,WEST CHEDABUCTO BAY,0.0,45.48687,-61.14100000000001,18,2020-12-03T08:00:00.000Z,108,2020-12-03T08:03:26.194Z,45.48745,100,-61.14122,100,7.1,100,7.9,100,12.3,100,0.0,100,3.6,100,0.5,100,1.1,100,8.5,100,0.7,100,0.9,100,9.0,100,5.9,100,10.0,100,1012.6,100,5.8,100,163,100,9.0,100,5.0,100,0,1,0.3,1,1012.6,1,1012.6,100,1012.6,100,5.8,100,5.4,100,163,100,169,100,9.0,100,8.6,100
2020-12-03T08:10:00Z,44489,9302001,WEST CHEDABUCTO BAY,0.0,45.48687,-61.14100000000001,18,2020-12-03T08:10:00.000Z,110,2020-12-03T08:16:25.195Z,45.48743,100,-61.14122,100,7.0,100,7.9,100,12.4,100,0.0,100,3.6,100,,-1,,-1,,-1,,-1,,-1,,-1,,-1,,-1,1012.8,100,5.4,100,154,100,8.3,100,5.0,100,1,1,0.6,1,1012.8,1,1012.8,100,1012.8,100,5.4,100,5.0,100,154,100,159,100,8.3,100,7.6,100
2020-12-03T08:20:00Z,44489,9302001,WEST CHEDABUCTO BAY,0.0,45.48687,-61.14100000000001,18,2020-12-03T08:20:00.000Z,110,2020-12-03T08:23:22.740Z,45.48745,100,-61.14125,100,7.1,100,7.9,100,12.4,100,0.0,100,3.6,100,,-1,,-1,,-1,,-1,,-1,,-1,,-1,,-1,1012.9,100,6.8,100,130,100,8.6,100,5.0,100,1,1,0.7,1,1012.9,1,1012.9,100,1012.9,100,6.8,100,6.5,100,130,100,134,100,8.6,100,8.3,100
2020-12-03T08:30:00Z,44489,9302001,WEST CHEDABUCTO BAY,0.0,45.48687,-61.14100000000001,18,2020-12-03T08:30:00.000Z,110,2020-12-03T08:33:36.559Z,45.48742,100,-61.14123000000001,100,7.2,100,7.9,100,12.4,100,0.0,100,3.6,100,,-1,,-1,,-1,,-1,,-1,,-1,,-1,,-1,1012.9,100,8.3,100,132,100,10.1,100,5.0,100,1,1,0.6,1,1012.9,1,1012.9,100,1012.9,100,8.3,100,7.9,100,132,100,137,100,10.1,100,10.1,100
2020-12-03T08:40:00Z,44489,9302001,WEST CHEDABUCTO BAY,0.0,45.48687,-61.14100000000001,18,2020-12-03T08:40:00.000Z,110,2020-12-03T08:43:42.207Z,45.487429999999996,100,-61.14125,100,7.1,100,7.9,100,12.3,100,0.0,100,3.6,100,,-1,,-1,,-1,,-1,,-1,,-1,,-1,,-1,1012.6,100,10.4,100,101,100,14.0,100,5.0,100,1,1,0.1,1,1012.6,1,1012.6,100,1012.6,100,10.4,100,10.1,100,101,100,106,100,14.0,100,13.7,100
2020-12-03T08:50:00Z,44489,9302001,WEST CHEDABUCTO BAY,0.0,45.48687,-61.14100000000001,18,2020-12-03T08:50:00.000Z,110,2020-12-03T08:52:34.638Z,45.48743,100,-61.14123000000001,100,7.2,100,7.9,100,12.3,100,0.0,100,3.6,100,,-1,,-1,,-1,,-1,,-1,,-1,,-1,,-1,1012.8,100,6.5,100,136,100,12.6,100,5.0,100,3,1,0.2,1,1012.8,1,1012.8,100,1012.8,100,6.5,100,6.1,100,136,100,142,100,12.6,100,11.5,100
2020-12-03T09:00:00Z,44489,9302001,WEST CHEDABUCTO BAY,0.0,45.48687,-61.14100000000001,18,2020-12-03T09:00:00.000Z,108,2020-12-03T09:03:55.325Z,45.487429999999996,100,-61.14123000000001,100,7.2,100,7.9,100,12.3,100,0.0,100,3.6,100,0.5,100,1.2,100,8.7,100,0.8,100,0.9,100,8.4,100,6.3,100,10.0,100,1013.0,100,6.1,100,170,100,7.9,100,5.0,100,3,1,0.3,1,1013.0,1,1013.0,100,1013.0,100,6.1,100,5.8,100,170,100,175,100,7.9,100,7.6,100
2020-12-03T09:10:00Z,44489,9302001,WEST CHEDABUCTO BAY,0.0,45.48687,-61.14100000000001,18,2020-12-03T09:10:00.000Z,110,2020-12-03T09:15:46.694Z,45.48743,100,-61.14125,100,7.4,100,7.9,100,12.4,100,0.0,100,3.6,100,,-1,,-1,,-1,,-1,,-1,,-1,,-1,,-1,1013.0,100,5.8,100,160,100,8.6,100,5.0,100,3,1,0.3,1,1013.0,1,1013.0,100,1013.0,100,5.8,100,5.8,100,160,100,165,100,8.6,100,7.9,100